User: anonymous   Login
Location: Unspecified
(0.0000°N, 0.0000°E)
Time: 02:08:52
(UTC+00:00)
Language:

TBA - TO BE ASSIGNED - Orbit

View from above orbital plane
View from above orbital plane
View from above satellite
View from above satellite

Ground track
Ground track

The orbit is defined by the following mean orbital elements,

1 68478U          26145.36422926 +.00000000 +00000-0 +10209-3 0 00003
2 68478  97.7588 104.0002 0002588  39.3219 320.8187 14.92094344    05
Epoch (UTC): 25 May 2026 08:44:29
Eccentricity: 0.0002588
inclination: 97.7588°
perigee height: 590 km
apogee height: 593 km
right ascension of ascending node: 104.0002°
argument of perigee: 39.3219°
revolutions per day: 14.92094344
mean anomaly at epoch: 320.8187°

The dashed part of the orbit path shows where the satellite is in the earth's shadow,  

DLR